EN

Hourly Weather Labedzie

Today, 25 July, Sunday

Time Temperature Precipitation Wind Pressure Humidity
00:00 +18°C° 0 mm 3 mps 751 mmHg 75%
01:00 +18°C° 0 mm 3 mps 751 mmHg 80%
02:00 +17°C° 0 mm 3 mps 750 mmHg 82%
03:00 +17°C° 0 mm 3 mps 750 mmHg 84%
04:00 +17°C° 0 mm 3 mps 750 mmHg 86%
05:00 +19°C° 0 mm 3 mps 750 mmHg 79%
06:00 +20°C° 0 mm 4 mps 750 mmHg 71%
07:00 +22°C° 0 mm 4 mps 750 mmHg 63%
08:00 +25°C° 0 mm 4 mps 750 mmHg 56%
09:00 +26°C° 0 mm 4 mps 750 mmHg 49%
10:00 +28°C° 0 mm 5 mps 750 mmHg 43%
11:00 +29°C° 0 mm 4 mps 750 mmHg 41%
12:00 +29°C° 0 mm 4 mps 750 mmHg 40%
13:00 +30°C° 0 mm 3 mps 749 mmHg 38%
14:00 +30°C° 0 mm 3 mps 749 mmHg 39%
15:00 +30°C° 0 mm 3 mps 749 mmHg 40%
16:00 +30°C° 0 mm 3 mps 749 mmHg 41%
17:00 +29°C° 0 mm 3 mps 749 mmHg 47%
18:00 +27°C° 0 mm 3 mps 749 mmHg 53%
19:00 +26°C° 0 mm 3 mps 749 mmHg 59%
20:00 +25°C° 0 mm 3 mps 750 mmHg 63%
21:00 +22°C° 0 mm 3 mps 750 mmHg 66%
22:00 +20°C° 0 mm 3 mps 750 mmHg 70%
23:00 +20°C° 0 mm 3 mps 750 mmHg 74%

Tomorrow, 26 July, Monday

Time Temperature Precipitation Wind Pressure Humidity
00:00 +19°C° 0 mm 2 mps 750 mmHg 78%
01:00 +18°C° 0 mm 2 mps 750 mmHg 82%
02:00 +18°C° 0 mm 2 mps 750 mmHg 83%
03:00 +17°C° 0 mm 2 mps 750 mmHg 85%
04:00 +17°C° 0 mm 2 mps 750 mmHg 86%
05:00 +19°C° 0 mm 2 mps 750 mmHg 79%
06:00 +21°C° 0 mm 2 mps 750 mmHg 72%
07:00 +24°C° 0 mm 2 mps 750 mmHg 66%
08:00 +25°C° 0 mm 2 mps 750 mmHg 60%
09:00 +27°C° 0 mm 2 mps 750 mmHg 54%
10:00 +28°C° 0 mm 2 mps 750 mmHg 48%
11:00 +29°C° 0 mm 2 mps 749 mmHg 46%
12:00 +30°C° 0 mm 2 mps 749 mmHg 43%
13:00 +31°C° 0 mm 2 mps 749 mmHg 41%
14:00 +30°C° 0 mm 2 mps 749 mmHg 44%
15:00 +29°C° 0 mm 2 mps 749 mmHg 48%
16:00 +29°C° 0 mm 2 mps 748 mmHg 52%
17:00 +27°C° 0.1 mm 2 mps 748 mmHg 56%
18:00 +26°C° 0.1 mm 2 mps 748 mmHg 61%
19:00 +25°C° 0.1 mm 1 mps 748 mmHg 66%
20:00 +24°C° 0.6 mm 1 mps 748 mmHg 73%
21:00 +22°C° 0.6 mm 1 mps 748 mmHg 80%
22:00 +21°C° 0.6 mm 1 mps 748 mmHg 87%
23:00 +19°C° 0.4 mm 2 mps 748 mmHg 89%

Day after tomorrow, 27 July, Tuesday

Time Temperature Precipitation Wind Pressure Humidity
00:00 +19°C° 0.4 mm 2 mps 748 mmHg 92%
01:00 +19°C° 0.4 mm 2 mps 748 mmHg 94%
02:00 +18°C° 0.1 mm 2 mps 748 mmHg 94%
03:00 +18°C° 0.1 mm 2 mps 748 mmHg 94%
04:00 +18°C° 0.1 mm 2 mps 748 mmHg 93%
05:00 +19°C° 0.1 mm 2 mps 748 mmHg 92%
06:00 +19°C° 0.1 mm 2 mps 749 mmHg 90%
07:00 +20°C° 0.1 mm 2 mps 749 mmHg 88%
08:00 +22°C° 0 mm 3 mps 749 mmHg 78%
09:00 +25°C° 0 mm 4 mps 749 mmHg 68%
10:00 +27°C° 0 mm 4 mps 749 mmHg 58%
11:00 +28°C° 0 mm 4 mps 749 mmHg 54%
12:00 +28°C° 0 mm 5 mps 749 mmHg 50%
13:00 +29°C° 0 mm 5 mps 749 mmHg 46%
14:00 +28°C° 0 mm 4 mps 749 mmHg 49%
15:00 +28°C° 0 mm 3 mps 749 mmHg 51%
16:00 +27°C° 0 mm 3 mps 749 mmHg 54%
17:00 +26°C° 0 mm 2 mps 749 mmHg 60%
18:00 +25°C° 0 mm 2 mps 749 mmHg 65%
19:00 +24°C° 0 mm 1 mps 749 mmHg 71%
20:00 +23°C° 0 mm 1 mps 749 mmHg 74%
21:00 +22°C° 0 mm 1 mps 750 mmHg 77%
22:00 +21°C° 0 mm 1 mps 750 mmHg 80%
23:00 +21°C° 0 mm 1 mps 750 mmHg 80%

28 July, Wednesday

Time Temperature Precipitation Wind Pressure Humidity
00:00 +19°C° 0 mm 2 mps 749 mmHg 80%
01:00 +19°C° 0 mm 2 mps 749 mmHg 80%
02:00 +19°C° 0 mm 2 mps 749 mmHg 81%
03:00 +18°C° 0 mm 2 mps 749 mmHg 82%
04:00 +18°C° 0 mm 2 mps 749 mmHg 83%
05:00 +19°C° 0 mm 3 mps 749 mmHg 78%
06:00 +21°C° 0 mm 3 mps 749 mmHg 73%
07:00 +22°C° 0 mm 4 mps 749 mmHg 68%
08:00 +22°C° 0 mm 4 mps 749 mmHg 66%
09:00 +22°C° 0 mm 4 mps 749 mmHg 65%
10:00 +22°C° 0 mm 4 mps 749 mmHg 64%
11:00 +22°C° 0.1 mm 4 mps 749 mmHg 66%
12:00 +21°C° 0.1 mm 3 mps 749 mmHg 68%
13:00 +21°C° 0.1 mm 3 mps 750 mmHg 71%
14:00 +21°C° 0.1 mm 3 mps 749 mmHg 70%
15:00 +21°C° 0.1 mm 3 mps 749 mmHg 68%
16:00 +22°C° 0.1 mm 3 mps 749 mmHg 67%
17:00 +21°C° 0 mm 3 mps 749 mmHg 69%
18:00 +21°C° 0 mm 3 mps 749 mmHg 71%
19:00 +21°C° 0 mm 2 mps 749 mmHg 73%
20:00 +20°C° 0 mm 2 mps 749 mmHg 78%
21:00 +18°C° 0 mm 2 mps 749 mmHg 83%
22:00 +17°C° 0 mm 2 mps 749 mmHg 88%
23:00 +17°C° 0 mm 2 mps 750 mmHg 90%

29 July, Thursday

Time Temperature Precipitation Wind Pressure Humidity
00:00 +16°C° 0 mm 2 mps 750 mmHg 91%
01:00 +16°C° 0 mm 2 mps 750 mmHg 93%
02:00 +16°C° 0 mm 2 mps 750 mmHg 93%
03:00 +15°C° 0 mm 2 mps 750 mmHg 94%
04:00 +15°C° 0 mm 2 mps 750 mmHg 95%
05:00 +16°C° 0 mm 3 mps 750 mmHg 89%
06:00 +18°C° 0 mm 3 mps 750 mmHg 83%
07:00 +19°C° 0 mm 3 mps 750 mmHg 76%
08:00 +20°C° 0 mm 4 mps 750 mmHg 69%
09:00 +22°C° 0 mm 4 mps 750 mmHg 62%
10:00 +23°C° 0 mm 4 mps 750 mmHg 56%
11:00 +23°C° 0.3 mm 4 mps 749 mmHg 55%
12:00 +25°C° 0.3 mm 5 mps 749 mmHg 54%
13:00 +25°C° 0.3 mm 5 mps 749 mmHg 54%
14:00 +25°C° 0.1 mm 5 mps 749 mmHg 51%
15:00 +26°C° 0.1 mm 5 mps 748 mmHg 49%
16:00 +26°C° 0.1 mm 4 mps 748 mmHg 46%
17:00 +25°C° 0 mm 3 mps 748 mmHg 52%
18:00 +24°C° 0 mm 2 mps 748 mmHg 58%
19:00 +22°C° 0 mm 1 mps 748 mmHg 64%
20:00 +21°C° 0 mm 1 mps 748 mmHg 67%
21:00 +20°C° 0 mm 1 mps 748 mmHg 69%
22:00 +19°C° 0 mm 1 mps 748 mmHg 71%
23:00 +18°C° 0 mm 2 mps 747 mmHg 72%

30 July, Friday

Time Temperature Precipitation Wind Pressure Humidity
00:00 +18°C° 0 mm 2 mps 747 mmHg 72%
01:00 +17°C° 0 mm 3 mps 747 mmHg 72%
02:00 +17°C° 0 mm 3 mps 747 mmHg 70%
03:00 +18°C° 0 mm 3 mps 747 mmHg 67%
04:00 +18°C° 0 mm 3 mps 747 mmHg 64%
05:00 +19°C° 0 mm 4 mps 747 mmHg 64%
06:00 +19°C° 0 mm 4 mps 747 mmHg 63%
07:00 +20°C° 0 mm 4 mps 747 mmHg 63%
08:00 +21°C° 0 mm 5 mps 747 mmHg 60%
09:00 +22°C° 0 mm 6 mps 747 mmHg 56%
10:00 +23°C° 0 mm 6 mps 747 mmHg 52%
11:00 +24°C° 0 mm 6 mps 747 mmHg 48%
12:00 +24°C° 0 mm 7 mps 747 mmHg 43%
13:00 +26°C° 0 mm 7 mps 747 mmHg 38%
14:00 +26°C° 0 mm 7 mps 747 mmHg 37%
15:00 +26°C° 0 mm 6 mps 747 mmHg 37%
16:00 +26°C° 0 mm 6 mps 747 mmHg 36%
17:00 +23°C° 0 mm 5 mps 747 mmHg 39%
18:00 +22°C° 0 mm 4 mps 747 mmHg 43%
19:00 +21°C° 0 mm 4 mps 747 mmHg 47%
20:00 +20°C° 0 mm 3 mps 747 mmHg 52%
21:00 +18°C° 0 mm 3 mps 747 mmHg 57%
22:00 +17°C° 0 mm 2 mps 747 mmHg 62%
23:00 +16°C° 0 mm 2 mps 747 mmHg 65%
Show more